Kelso-Longview, WA
on Friday, February 15, 2013

Friday
Previous Day Next Day
Daily Summary
 ActualAverage (KSPB)Record (KSPB)
Temperature
Mean Temperature °F °F  
Max Temperature 59°F °F 62°F (2013)
Min Temperature 39°F °F 25°F (2005)
Degree Days
Heating Degree Days 16    
Month to date heating degree days  
Since 1 July heating degree days  
Cooling Degree Days 0    
Month to date cooling degree days  
Year to date cooling degree days  
Moisture
Dew Point 41°F   
Average Humidity 79    
Maximum Humidity 93    
Minimum Humidity 59    
Precipitation
Precipitation 0.00 in in 1.21 in (2014)
Month to date precipitation  
Year to date precipitation  
Wind
Wind Speed 3 mph   
Max Wind Speed 10 mph   
Max Gust Speed mph   
Visibility 10 miles   
Events     

Key: T is trace of precipitation, MM is missing value
Source: NWS Daily Summary
Time(PST)TemperatureDew PointHumidity Pressure Visibility Wind DirectionWind SpeedGust SpeedPrecipitationEvents Conditions
12:15 AM 44.6°F 41.0°F 87% 30.53 in 10.0 miles NW 3.5 mph - N/A   Overcast
12:35 AM 44.6°F 41.0°F 87% 30.53 in 7.0 miles NW 4.6 mph - N/A   Overcast
12:55 AM 44.6°F 41.0°F 87% 30.52 in 9.0 miles NW 3.5 mph - N/A   Overcast
1:15 AM 44.6°F 41.0°F 87% 30.52 in 10.0 miles Calm Calm - N/A   Overcast
1:35 AM 44.6°F 41.0°F 87% 30.51 in 5.0 miles Calm Calm - N/A   Overcast
1:55 AM 44.6°F 41.0°F 87% 30.51 in 8.0 miles NW 3.5 mph - N/A   Overcast
2:15 AM 44.6°F 41.0°F 87% 30.50 in 10.0 miles NW 5.8 mph - N/A   Overcast
2:35 AM 44.6°F 41.0°F 87% 30.50 in 10.0 miles NW 4.6 mph - N/A   Overcast
2:55 AM 44.6°F 39.2°F 81% 30.50 in 10.0 miles Calm Calm - N/A   Overcast
3:15 AM 44.6°F 39.2°F 81% 30.49 in 10.0 miles Calm Calm - N/A   Overcast
3:35 AM 44.6°F 39.2°F 81% 30.48 in 10.0 miles Calm Calm - N/A   Overcast
4:15 AM 42.8°F 39.2°F 87% 30.47 in 10.0 miles Calm Calm - N/A   Mostly Cloudy
4:35 AM 41.0°F 37.4°F 87% 30.47 in 10.0 miles Calm Calm - N/A   Mostly Cloudy
4:55 AM 41.0°F 37.4°F 87% 30.46 in 10.0 miles Calm Calm - N/A   Overcast
5:15 AM 39.2°F 35.6°F 87% 30.46 in 10.0 miles Calm Calm - N/A   Mostly Cloudy
5:35 AM 39.2°F 37.4°F 93% 30.46 in 10.0 miles Calm Calm - N/A   Mostly Cloudy
5:55 AM 39.2°F 35.6°F 87% 30.45 in 10.0 miles SE 3.5 mph - N/A   Mostly Cloudy
6:15 AM 39.2°F 35.6°F 87% 30.44 in 10.0 miles Calm Calm - N/A   Mostly Cloudy
6:35 AM 41.0°F 37.4°F 87% 30.44 in 10.0 miles Calm Calm - N/A   Overcast
6:55 AM 41.0°F 37.4°F 87% 30.44 in 10.0 miles NNE 5.8 mph - N/A   Overcast
7:15 AM 42.8°F 37.4°F 81% 30.43 in 10.0 miles NE 6.9 mph - N/A   Mostly Cloudy
7:35 AM 42.8°F 37.4°F 81% 30.43 in 10.0 miles Calm Calm - N/A   Scattered Clouds
7:55 AM 41.0°F 37.4°F 87% 30.43 in 10.0 miles ESE 4.6 mph - N/A   Clear
8:15 AM 41.0°F 37.4°F 87% 30.42 in 10.0 miles Calm Calm - N/A   Clear
8:35 AM 42.8°F 37.4°F 81% 30.42 in 10.0 miles Calm Calm - N/A   Clear
8:55 AM 42.8°F 39.2°F 87% 30.42 in 10.0 miles Calm Calm - N/A   Clear
9:15 AM 44.6°F 39.2°F 81% 30.42 in 10.0 miles North 6.9 mph - N/A   Clear
9:55 AM 46.4°F 39.2°F 76% 30.41 in 10.0 miles NNE 8.1 mph - N/A   Clear
10:15 AM 48.2°F 39.2°F 71% 30.40 in 10.0 miles North 6.9 mph - N/A   Clear
10:35 AM 48.2°F 39.2°F 71% 30.40 in 10.0 miles North 10.4 mph - N/A   Clear
10:55 AM 48.2°F 39.2°F 71% 30.39 in 10.0 miles North 10.4 mph - N/A   Clear
11:15 AM 48.2°F 39.2°F 71% 30.39 in 10.0 miles North 9.2 mph - N/A   Clear
11:35 AM 50.0°F 41.0°F 71% 30.38 in 10.0 miles NNW 9.2 mph - N/A   Clear
11:55 AM 51.8°F 41.0°F 67% 30.37 in 10.0 miles North 6.9 mph - N/A   Clear
12:15 PM 51.8°F 42.8°F 71% 30.35 in 10.0 miles NNW 5.8 mph - N/A   Clear
12:35 PM 53.6°F 42.8°F 67% 30.34 in 10.0 miles North 5.8 mph - N/A   Clear
12:55 PM 53.6°F 42.8°F 67% 30.32 in 10.0 miles NNW 6.9 mph - N/A   Clear
1:15 PM 55.4°F 42.8°F 63% 30.31 in 10.0 miles North 4.6 mph - N/A   Clear
1:35 PM 55.4°F 44.6°F 67% 30.29 in 10.0 miles NW 5.8 mph - N/A   Clear
1:55 PM 57.2°F 44.6°F 63% 30.28 in 10.0 miles NW 5.8 mph - N/A   Clear
2:15 PM 57.2°F 44.6°F 63% 30.27 in 10.0 miles NW 5.8 mph - N/A   Clear
2:35 PM 57.2°F 44.6°F 63% 30.25 in 10.0 miles NW 6.9 mph - N/A   Clear
2:55 PM 59.0°F 44.6°F 59% 30.25 in 10.0 miles NNW 9.2 mph - N/A   Clear
3:15 PM 59.0°F 44.6°F 59% 30.25 in 10.0 miles NW 8.1 mph - N/A   Clear
3:35 PM 59.0°F 44.6°F 59% 30.24 in 10.0 miles NNW 8.1 mph - N/A   Clear
3:55 PM 59.0°F 44.6°F 59% 30.23 in 10.0 miles NW 6.9 mph - N/A   Clear
4:15 PM 59.0°F 44.6°F 59% 30.23 in 10.0 miles WNW 4.6 mph - N/A   Clear
4:35 PM 57.2°F 44.6°F 63% 30.22 in 10.0 miles NW 5.8 mph - N/A   Clear
4:55 PM 57.2°F 44.6°F 63% 30.22 in 10.0 miles NW 5.8 mph - N/A   Clear
5:15 PM 57.2°F 44.6°F 63% 30.21 in 10.0 miles Calm Calm - N/A   Clear
5:35 PM 55.4°F 44.6°F 67% 30.21 in 10.0 miles NW 3.5 mph - N/A   Clear
5:55 PM 53.6°F 44.6°F 72% 30.21 in 10.0 miles NNW 5.8 mph - N/A   Clear
6:15 PM 53.6°F 42.8°F 67% 30.21 in 10.0 miles Calm Calm - N/A   Clear
6:35 PM 51.8°F 42.8°F 71% 30.21 in 10.0 miles Calm Calm - N/A   Clear
6:55 PM 48.2°F 42.8°F 82% 30.22 in 10.0 miles Calm Calm - N/A   Clear
7:15 PM 48.2°F 42.8°F 82% 30.21 in 10.0 miles Calm Calm - N/A   Clear
7:35 PM 46.4°F 42.8°F 87% 30.22 in 10.0 miles Calm Calm - N/A   Clear
7:55 PM 46.4°F 41.0°F 81% 30.22 in 8.0 miles Calm Calm - N/A   Clear
8:15 PM 44.6°F 41.0°F 87% 30.23 in 10.0 miles Calm Calm - N/A   Clear
8:35 PM 44.6°F 41.0°F 87% 30.23 in 10.0 miles Calm Calm - N/A   Clear
8:55 PM 42.8°F 39.2°F 87% 30.22 in 10.0 miles Calm Calm - N/A   Clear
9:15 PM 42.8°F 39.2°F 87% 30.23 in 10.0 miles Calm Calm - N/A   Clear
9:35 PM 42.8°F 39.2°F 87% 30.23 in 10.0 miles Calm Calm - N/A   Clear
9:55 PM 39.2°F 37.4°F 93% 30.24 in 8.0 miles South 4.6 mph - N/A   Clear
10:15 PM 42.8°F 39.2°F 87% 30.23 in 10.0 miles Calm Calm - N/A   Clear
10:35 PM 39.2°F 37.4°F 93% 30.22 in 9.0 miles Calm Calm - N/A   Clear
10:55 PM 41.0°F 37.4°F 87% 30.22 in 5.0 miles Calm Calm - N/A   Clear
11:15 PM 41.0°F 39.2°F 93% 30.22 in 10.0 miles SE 3.5 mph - N/A   Clear
11:35 PM 39.2°F 37.4°F 93% 30.21 in 10.0 miles Calm Calm - N/A   Clear
11:55 PM 42.8°F 39.2°F 87% 30.20 in 10.0 miles SE 4.6 mph - N/A   Clear
Moon Phase
Feb. 15 Feb. 17 Feb. 25 Mar. 04 Mar. 11
Sunrise:07:13 AM (PST) Moon Rise:09:31 AM (PST)2/15
Sunset:05:38 PM (PST) Moon Set:No Moon Set/

Copyright © 2014 The Weather Underground, Inc.